| time (UTC) | temp F | wind direction | speed MPH | gust MPH | rain 1hr in | rain 24hr in | rain mn in | humidity % | barometer mb |
| 20260905204544 | 62 | 0 | 0.0 | 2.0 | 0.00 | 0.01 | 0.00 | 70 | 1017.8 |
| 20260905204026 | 62 | 0 | 0.0 | 2.0 | 0.00 | 0.01 | 0.00 | 73 | 1017.7 |
| 20260905203524 | 62 | 0 | 0.0 | 2.0 | 0.00 | 0.01 | 0.00 | 73 | 1017.8 |
| 20260905203052 | 61 | 0 | 0.0 | 3.0 | 0.00 | 0.01 | 0.00 | 72 | 1017.8 |
| 20260905202526 | 62 | 0 | 0.0 | 6.0 | 0.00 | 0.01 | 0.00 | 71 | 1017.8 |
| 20260905202024 | 61 | 0 | 0.0 | 6.0 | 0.00 | 0.01 | 0.00 | 70 | 1017.8 |
| 20260905201557 | 61 | 103 | 0.0 | 3.0 | 0.00 | 0.01 | 0.00 | 72 | 1017.8 |
| 20260905201024 | 61 | 134 | 0.0 | 4.0 | 0.00 | 0.01 | 0.00 | 72 | 1017.8 |
| 20260905200520 | 62 | 109 | 1.0 | 6.0 | 0.00 | 0.01 | 0.00 | 69 | 1017.7 |
| 20260905200046 | 62 | 0 | 0.0 | 7.0 | 0.00 | 0.01 | 0.00 | 71 | 1017.7 |
| 20260905195531 | 61 | 0 | 1.0 | 7.0 | 0.00 | 0.01 | 0.00 | 71 | 1017.7 |
| 20260905195026 | 62 | 111 | 1.0 | 6.0 | 0.00 | 0.01 | 0.00 | 70 | 1017.7 |
| 20260905194544 | 61 | 46 | 1.0 | 6.0 | 0.00 | 0.01 | 0.00 | 73 | 1017.7 |
| 20260905194024 | 61 | 0 | 1.0 | 6.0 | 0.00 | 0.01 | 0.00 | 71 | 1017.8 |
| 20260905193523 | 61 | 241 | 1.0 | 5.0 | 0.00 | 0.01 | 0.00 | 72 | 1017.9 |
| 20260905193047 | 61 | 0 | 1.0 | 8.0 | 0.00 | 0.01 | 0.00 | 71 | 1018.0 |
| 20260905192526 | 61 | 130 | 1.0 | 8.0 | 0.00 | 0.01 | 0.00 | 72 | 1017.9 |
| 20260905192025 | 61 | 98 | 2.0 | 7.0 | 0.00 | 0.01 | 0.00 | 73 | 1018.0 |
| 20260905191546 | 61 | 0 | 1.0 | 6.0 | 0.00 | 0.01 | 0.00 | 72 | 1018.0 |
| 20260905191024 | 61 | 84 | 0.0 | 4.0 | 0.00 | 0.01 | 0.00 | 72 | 1017.9 |
| 20260905190525 | 61 | 0 | 0.0 | 4.0 | 0.00 | 0.01 | 0.00 | 73 | 1018.0 |
| 20260905190045 | 60 | 197 | 1.0 | 4.0 | 0.00 | 0.01 | 0.00 | 75 | 1018.1 |
| 20260905185524 | 59 | 0 | 1.0 | 4.0 | 0.00 | 0.01 | 0.00 | 75 | 1018.2 |
| 20260905185022 | 59 | 0 | 0.0 | 3.0 | 0.00 | 0.01 | 0.00 | 74 | 1018.3 |
| 20260905184549 | 59 | 0 | 0.0 | 6.0 | 0.00 | 0.01 | 0.00 | 76 | 1018.2 |
| 20260905184023 | 59 | 105 | 1.0 | 6.0 | 0.00 | 0.01 | 0.00 | 75 | 1018.2 |
| 20260905183523 | 59 | 0 | 0.0 | 4.0 | 0.00 | 0.01 | 0.00 | 79 | 1018.3 |
| 20260905183108 | 59 | 96 | 0.0 | 4.0 | 0.00 | 0.01 | 0.00 | 80 | 1018.3 |
| 20260905182524 | 59 | 0 | 1.0 | 4.0 | 0.00 | 0.01 | 0.00 | 77 | 1018.4 |
| 20260905182027 | 58 | 0 | 0.0 | 3.0 | 0.00 | 0.01 | 0.00 | 80 | 1018.3 |
| 20260905181547 | 58 | 73 | 0.0 | 2.0 | 0.00 | 0.01 | 0.00 | 81 | 1018.3 |
| 20260905181022 | 57 | 0 | 0.0 | 0.0 | 0.00 | 0.01 | 0.00 | 83 | 1018.5 |
| 20260905180526 | 57 | 0 | 0.0 | 3.0 | 0.00 | 0.01 | 0.00 | 83 | 1018.4 |
| 20260905180050 | 56 | 0 | 0.0 | 3.0 | 0.00 | 0.01 | 0.00 | 82 | 1018.3 |
| 20260905175526 | 57 | 0 | 0.0 | 3.0 | 0.00 | 0.01 | 0.00 | 82 | 1018.3 |
| 20260905175024 | 56 | 0 | 0.0 | 1.0 | 0.00 | 0.01 | 0.00 | 81 | 1018.3 |
| 20260905174549 | 56 | 0 | 0.0 | 4.0 | 0.00 | 0.01 | 0.00 | 82 | 1018.3 |
| 20260905174024 | 56 | 0 | 0.0 | 6.0 | 0.00 | 0.01 | 0.00 | 82 | 1018.2 |
| 20260905173526 | 55 | 111 | 1.0 | 6.0 | 0.00 | 0.01 | 0.00 | 82 | 1018.3 |
| 20260905173046 | 56 | 0 | 0.0 | 4.0 | 0.00 | 0.01 | 0.00 | 82 | 1018.3 |
| 20260905172525 | 56 | 0 | 0.0 | 4.0 | 0.00 | 0.01 | 0.00 | 82 | 1018.2 |
| 20260905172023 | 55 | 0 | 0.0 | 2.0 | 0.00 | 0.01 | 0.00 | 84 | 1018.1 |
| 20260905171550 | 55 | 0 | 0.0 | 3.0 | 0.00 | 0.01 | 0.00 | 83 | 1018.1 |
| 20260905171023 | 54 | 0 | 0.0 | 3.0 | 0.00 | 0.01 | 0.00 | 85 | 1018.1 |
| 20260905170526 | 54 | 117 | 0.0 | 4.0 | 0.00 | 0.01 | 0.00 | 85 | 1018.2 |
| 20260905170057 | 54 | 0 | 0.0 | 4.0 | 0.00 | 0.01 | 0.00 | 86 | 1018.2 |
| 20260905165524 | 54 | 0 | 1.0 | 5.0 | 0.00 | 0.01 | 0.00 | 85 | 1018.2 |
| 20260905165024 | 54 | 0 | 0.0 | 5.0 | 0.00 | 0.01 | 0.00 | 84 | 1018.2 |
| 20260905164602 | 54 | 113 | 0.0 | 5.0 | 0.00 | 0.01 | 0.00 | 84 | 1018.2 |
| 20260905164023 | 54 | 105 | 0.0 | 5.0 | 0.00 | 0.01 | 0.00 | 86 | 1018.3 |
| 20260905163528 | 54 | 99 | 0.0 | 4.0 | 0.00 | 0.01 | 0.00 | 85 | 1018.3 |
| 20260905163051 | 53 | 109 | 0.0 | 4.0 | 0.00 | 0.01 | 0.00 | 85 | 1018.2 |
| 20260905162524 | 53 | 108 | 0.0 | 4.0 | 0.00 | 0.01 | 0.00 | 86 | 1018.2 |
| 20260905162023 | 52 | 0 | 0.0 | 3.0 | 0.00 | 0.01 | 0.00 | 87 | 1018.2 |
| 20260905161546 | 52 | 0 | 0.0 | 6.0 | 0.00 | 0.01 | 0.00 | 88 | 1018.1 |
| 20260905161028 | 51 | 0 | 1.0 | 6.0 | 0.00 | 0.01 | 0.00 | 88 | 1018.2 |
| 20260905160528 | 51 | 0 | 0.0 | 4.0 | 0.00 | 0.01 | 0.00 | 89 | 1018.1 |
| 20260905160044 | 51 | 0 | 0.0 | 4.0 | 0.00 | 0.01 | 0.00 | 89 | 1018.2 |
| 20260905155529 | 51 | 107 | 0.0 | 4.0 | 0.00 | 0.01 | 0.00 | 88 | 1018.2 |
| 20260905155022 | 51 | 0 | 1.0 | 4.0 | 0.00 | 0.01 | 0.00 | 88 | 1018.3 |
| 20260905154550 | 51 | 0 | 0.0 | 3.0 | 0.00 | 0.01 | 0.00 | 88 | 1018.2 |
| 20260905154026 | 50 | 0 | 0.0 | 5.0 | 0.00 | 0.01 | 0.00 | 90 | 1018.2 |
| 20260905153523 | 50 | 0 | 0.0 | 5.0 | 0.00 | 0.01 | 0.00 | 91 | 1018.3 |
| 20260905153050 | 49 | 187 | 0.0 | 4.0 | 0.00 | 0.01 | 0.00 | 92 | 1018.3 |
| 20260905152523 | 49 | 116 | 1.0 | 4.0 | 0.00 | 0.01 | 0.00 | 93 | 1018.1 |
| 20260905152023 | 49 | 0 | 0.0 | 3.0 | 0.00 | 0.01 | 0.00 | 93 | 1018.1 |
| 20260905151549 | 48 | 106 | 0.0 | 3.0 | 0.00 | 0.01 | 0.00 | 94 | 1018.0 |
| 20260905151025 | 48 | 0 | 0.0 | 2.0 | 0.00 | 0.01 | 0.00 | 94 | 1018.0 |
| 20260905150522 | 48 | 0 | 0.0 | 2.0 | 0.00 | 0.01 | 0.00 | 95 | 1017.9 |
| 20260905150050 | 48 | 0 | 0.0 | 0.0 | 0.00 | 0.01 | 0.00 | 95 | 1017.9 |
| 20260905145523 | 48 | 0 | 0.0 | 0.0 | 0.00 | 0.01 | 0.00 | 95 | 1017.9 |
| 20260905145023 | 47 | 0 | 0.0 | 0.0 | 0.00 | 0.01 | 0.00 | 95 | 1017.9 |
| 20260905144551 | 47 | 0 | 0.0 | 0.0 | 0.00 | 0.01 | 0.00 | 95 | 1017.8 |
| 20260905144025 | 47 | 0 | 0.0 | 0.0 | 0.00 | 0.01 | 0.00 | 95 | 1017.8 |
| 20260905143527 | 47 | 0 | 0.0 | 0.0 | 0.00 | 0.01 | 0.00 | 95 | 1017.7 |
| 20260905143051 | 47 | 0 | 0.0 | 0.0 | 0.00 | 0.01 | 0.00 | 95 | 1017.7 |
| 20260905142523 | 47 | 0 | 0.0 | 0.0 | 0.00 | 0.01 | 0.00 | 95 | 1017.6 |
| 20260905142022 | 47 | 0 | 0.0 | 0.0 | 0.00 | 0.01 | 0.00 | 95 | 1017.6 |
| 20260905141545 | 47 | 0 | 0.0 | 0.0 | 0.00 | 0.01 | 0.00 | 94 | 1017.6 |
| 20260905141022 | 47 | 0 | 0.0 | 0.0 | 0.00 | 0.01 | 0.00 | 94 | 1017.6 |
| 20260905140524 | 47 | 0 | 0.0 | 0.0 | 0.00 | 0.01 | 0.00 | 94 | 1017.6 |
| 20260905140048 | 47 | 0 | 0.0 | 0.0 | 0.00 | 0.01 | 0.00 | 94 | 1017.6 |
| 20260905135524 | 47 | 0 | 0.0 | 0.0 | 0.00 | 0.01 | 0.00 | 94 | 1017.5 |
| 20260905135024 | 47 | 0 | 0.0 | 0.0 | 0.00 | 0.01 | 0.00 | 94 | 1017.5 |
| 20260905134558 | 47 | 0 | 0.0 | 0.0 | 0.00 | 0.01 | 0.00 | 94 | 1017.5 |
| 20260905134023 | 47 | 0 | 0.0 | 0.0 | 0.00 | 0.01 | 0.00 | 94 | 1017.3 |
| 20260905133523 | 47 | 0 | 0.0 | 0.0 | 0.00 | 0.01 | 0.00 | 94 | 1017.4 |
| 20260905133047 | 47 | 0 | 0.0 | 0.0 | 0.00 | 0.01 | 0.00 | 94 | 1017.4 |
| 20260905132525 | 47 | 0 | 0.0 | 0.0 | 0.00 | 0.01 | 0.00 | 94 | 1017.3 |
| 20260905132024 | 47 | 0 | 0.0 | 0.0 | 0.00 | 0.01 | 0.00 | 94 | 1017.3 |
| 20260905131545 | 47 | 0 | 0.0 | 0.0 | 0.00 | 0.01 | 0.00 | 94 | 1017.4 |
| 20260905131026 | 47 | 0 | 0.0 | 0.0 | 0.00 | 0.01 | 0.00 | 93 | 1017.4 |
| 20260905130523 | 47 | 0 | 0.0 | 0.0 | 0.00 | 0.01 | 0.00 | 93 | 1017.3 |
| 20260905130046 | 48 | 0 | 0.0 | 0.0 | 0.00 | 0.01 | 0.00 | 92 | 1017.4 |
| 20260905125521 | 48 | 0 | 0.0 | 0.0 | 0.00 | 0.01 | 0.00 | 92 | 1017.4 |
| 20260905125025 | 49 | 0 | 0.0 | 1.0 | 0.00 | 0.01 | 0.00 | 91 | 1017.3 |
| 20260905124547 | 49 | 0 | 0.0 | 2.0 | 0.00 | 0.01 | 0.00 | 90 | 1017.3 |
| 20260905124024 | 49 | 0 | 0.0 | 2.0 | 0.00 | 0.01 | 0.00 | 90 | 1017.3 |
| 20260905123523 | 49 | 0 | 0.0 | 1.0 | 0.00 | 0.01 | 0.00 | 90 | 1017.3 |
| 20260905123052 | 49 | 0 | 0.0 | 0.0 | 0.00 | 0.01 | 0.00 | 90 | 1017.2 |
| 20260905122524 | 49 | 0 | 0.0 | 0.0 | 0.00 | 0.01 | 0.00 | 91 | 1017.3 |
| 20260905122023 | 49 | 0 | 0.0 | 2.0 | 0.00 | 0.01 | 0.00 | 90 | 1017.2 |
| 20260905121548 | 49 | 0 | 0.0 | 2.0 | 0.00 | 0.01 | 0.00 | 90 | 1017.3 |
| 20260905121030 | 49 | 0 | 0.0 | 2.0 | 0.00 | 0.01 | 0.00 | 91 | 1017.3 |
| 20260905120523 | 49 | 0 | 0.0 | 1.0 | 0.00 | 0.01 | 0.00 | 90 | 1017.3 |
| 20260905120045 | 49 | 0 | 0.0 | 1.0 | 0.00 | 0.01 | 0.00 | 91 | 1017.4 |
| 20260905115525 | 49 | 0 | 0.0 | 1.0 | 0.00 | 0.01 | 0.00 | 91 | 1017.4 |
| 20260905115023 | 49 | 0 | 0.0 | 0.0 | 0.00 | 0.01 | 0.00 | 91 | 1017.4 |
| 20260905114546 | 49 | 0 | 0.0 | 0.0 | 0.00 | 0.01 | 0.00 | 91 | 1017.4 |
| 20260905114023 | 49 | 0 | 0.0 | 1.0 | 0.00 | 0.01 | 0.00 | 90 | 1017.4 |
| 20260905113524 | 49 | 0 | 0.0 | 2.0 | 0.00 | 0.01 | 0.00 | 90 | 1017.5 |
| 20260905113053 | 49 | 0 | 0.0 | 2.0 | 0.00 | 0.01 | 0.00 | 91 | 1017.4 |
| 20260905112525 | 49 | 0 | 0.0 | 2.0 | 0.00 | 0.01 | 0.00 | 91 | 1017.4 |
| 20260905112022 | 49 | 0 | 0.0 | 0.0 | 0.00 | 0.01 | 0.00 | 91 | 1017.4 |
| 20260905111552 | 49 | 0 | 0.0 | 0.0 | 0.00 | 0.01 | 0.00 | 91 | 1017.4 |
| 20260905111025 | 49 | 0 | 0.0 | 1.0 | 0.00 | 0.01 | 0.00 | 91 | 1017.3 |
| 20260905110522 | 49 | 0 | 0.0 | 1.0 | 0.00 | 0.01 | 0.00 | 91 | 1017.4 |
| 20260905110048 | 49 | 0 | 0.0 | 1.0 | 0.00 | 0.01 | 0.00 | 91 | 1017.4 |
| 20260905105522 | 49 | 0 | 0.0 | 1.0 | 0.00 | 0.01 | 0.00 | 91 | 1017.4 |
| 20260905105024 | 49 | 0 | 0.0 | 1.0 | 0.00 | 0.01 | 0.00 | 91 | 1017.4 |
| 20260905104601 | 49 | 0 | 0.0 | 1.0 | 0.00 | 0.01 | 0.00 | 91 | 1017.4 |
| 20260905104023 | 49 | 0 | 0.0 | 2.0 | 0.00 | 0.01 | 0.00 | 90 | 1017.4 |
| 20260905103524 | 50 | 0 | 0.0 | 2.0 | 0.00 | 0.01 | 0.00 | 90 | 1017.3 |
| 20260905103039 | 50 | 0 | 0.0 | 2.0 | 0.00 | 0.01 | 0.00 | 90 | 1017.3 |
| 20260905102524 | 49 | 200 | 0.0 | 2.0 | 0.00 | 0.01 | 0.00 | 90 | 1017.3 |
| 20260905102024 | 49 | 0 | 0.0 | 3.0 | 0.00 | 0.01 | 0.00 | 90 | 1017.2 |
| 20260905101547 | 49 | 0 | 0.0 | 3.0 | 0.00 | 0.01 | 0.00 | 91 | 1017.3 |
| 20260905101022 | 49 | 0 | 0.0 | 3.0 | 0.00 | 0.01 | 0.00 | 91 | 1017.2 |
| 20260905100523 | 49 | 0 | 0.0 | 3.0 | 0.00 | 0.01 | 0.00 | 91 | 1017.2 |
| 20260905100046 | 49 | 0 | 0.0 | 3.0 | 0.00 | 0.01 | 0.00 | 91 | 1017.1 |
| 20260905095522 | 49 | 0 | 0.0 | 2.0 | 0.00 | 0.01 | 0.00 | 91 | 1017.2 |
| 20260905095028 | 49 | 0 | 0.0 | 1.0 | 0.00 | 0.01 | 0.00 | 91 | 1017.2 |
| 20260905094544 | 49 | 0 | 0.0 | 3.0 | 0.00 | 0.01 | 0.00 | 91 | 1017.2 |
| 20260905094027 | 49 | 0 | 0.0 | 3.0 | 0.00 | 0.01 | 0.00 | 91 | 1017.2 |
| 20260905093523 | 49 | 0 | 0.0 | 3.0 | 0.00 | 0.01 | 0.00 | 91 | 1017.1 |
| 20260905093052 | 49 | 0 | 0.0 | 3.0 | 0.00 | 0.01 | 0.00 | 92 | 1017.1 |
| 20260905092522 | 49 | 0 | 0.0 | 0.0 | 0.00 | 0.01 | 0.00 | 91 | 1017.1 |
| 20260905092027 | 49 | 0 | 0.0 | 1.0 | 0.00 | 0.01 | 0.00 | 92 | 1017.2 |
| 20260905091545 | 49 | 0 | 0.0 | 1.0 | 0.00 | 0.01 | 0.00 | 91 | 1017.1 |
| 20260905091022 | 49 | 0 | 0.0 | 1.0 | 0.00 | 0.01 | 0.00 | 91 | 1017.0 |
| 20260905090524 | 50 | 0 | 0.0 | 1.0 | 0.00 | 0.01 | 0.00 | 91 | 1017.1 |
| 20260905090112 | 50 | 0 | 0.0 | 2.0 | 0.00 | 0.01 | 0.00 | 91 | 1017.0 |
| 20260905085524 | 50 | 0 | 0.0 | 3.0 | 0.00 | 0.01 | 0.00 | 91 | 1017.1 |
| 20260905085024 | 50 | 0 | 0.0 | 3.0 | 0.00 | 0.01 | 0.00 | 91 | 1017.0 |
| 20260905084544 | 50 | 0 | 0.0 | 3.0 | 0.00 | 0.01 | 0.00 | 91 | 1017.0 |
| 20260905084022 | 50 | 0 | 0.0 | 1.0 | 0.00 | 0.01 | 0.00 | 91 | 1017.0 |
| 20260905083525 | 50 | 0 | 0.0 | 2.0 | 0.00 | 0.01 | 0.00 | 92 | 1017.0 |
| 20260905083053 | 50 | 0 | 0.0 | 2.0 | 0.00 | 0.01 | 0.00 | 91 | 1016.8 |
| 20260905082528 | 50 | 0 | 0.0 | 1.0 | 0.00 | 0.01 | 0.00 | 92 | 1016.9 |
| 20260905082024 | 50 | 0 | 0.0 | 0.0 | 0.00 | 0.01 | 0.00 | 91 | 1016.9 |
| 20260905081546 | 50 | 0 | 0.0 | 2.0 | 0.00 | 0.01 | 0.00 | 91 | 1016.9 |
| 20260905081024 | 51 | 0 | 0.0 | 3.0 | 0.00 | 0.01 | 0.00 | 90 | 1016.9 |
| 20260905080523 | 51 | 0 | 0.0 | 3.0 | 0.00 | 0.01 | 0.00 | 90 | 1016.9 |
| 20260905080047 | 51 | 0 | 0.0 | 2.0 | 0.00 | 0.01 | 0.00 | 90 | 1016.8 |
| 20260905075523 | 51 | 0 | 0.0 | 2.0 | 0.00 | 0.01 | 0.00 | 90 | 1016.9 |
| 20260905075023 | 51 | 0 | 0.0 | 2.0 | 0.00 | 0.01 | 0.00 | 90 | 1016.9 |
| 20260905074547 | 51 | 0 | 0.0 | 1.0 | 0.00 | 0.01 | 0.00 | 90 | 1016.9 |
| 20260905074023 | 51 | 0 | 0.0 | 1.0 | 0.00 | 0.01 | 0.00 | 91 | 1016.8 |
| 20260905073528 | 51 | 0 | 0.0 | 2.0 | 0.00 | 0.01 | 0.00 | 91 | 1016.8 |
| 20260905073052 | 51 | 0 | 0.0 | 2.0 | 0.00 | 0.01 | 0.00 | 90 | 1016.8 |
| 20260905072525 | 51 | 0 | 0.0 | 1.0 | 0.00 | 0.01 | 0.00 | 90 | 1017.0 |
| 20260905072026 | 51 | 0 | 0.0 | 1.0 | 0.00 | 0.01 | 0.00 | 90 | 1016.9 |
| 20260905071547 | 51 | 0 | 0.0 | 4.0 | 0.00 | 0.01 | 0.00 | 90 | 1016.8 |
| 20260905071024 | 51 | 0 | 0.0 | 4.0 | 0.00 | 0.01 | 0.00 | 89 | 1016.7 |
| 20260905070523 | 51 | 0 | 0.0 | 4.0 | 0.00 | 0.01 | 0.00 | 90 | 1016.7 |
| 20260905070049 | 51 | 0 | 0.0 | 1.0 | 0.00 | 0.01 | 0.00 | 89 | 1016.6 |
| 20260905065523 | 51 | 0 | 0.0 | 2.0 | 0.00 | 0.01 | 0.01 | 89 | 1016.6 |
| 20260905065024 | 51 | 0 | 0.0 | 2.0 | 0.00 | 0.01 | 0.01 | 89 | 1016.6 |
| 20260905064546 | 51 | 192 | 0.0 | 2.0 | 0.00 | 0.01 | 0.01 | 89 | 1016.5 |
| 20260905064025 | 52 | 0 | 0.0 | 4.0 | 0.00 | 0.01 | 0.01 | 89 | 1016.5 |
| 20260905063524 | 52 | 0 | 0.0 | 4.0 | 0.00 | 0.01 | 0.01 | 89 | 1016.5 |
| 20260905063043 | 52 | 0 | 0.0 | 4.0 | 0.00 | 0.01 | 0.01 | 88 | 1016.5 |
| 20260905062524 | 51 | 0 | 1.0 | 4.0 | 0.00 | 0.01 | 0.01 | 90 | 1016.6 |
| 20260905062022 | 51 | 0 | 0.0 | 2.0 | 0.00 | 0.01 | 0.01 | 91 | 1016.6 |
| 20260905061554 | 51 | 0 | 0.0 | 1.0 | 0.00 | 0.01 | 0.01 | 92 | 1016.5 |
| 20260905061023 | 51 | 0 | 0.0 | 0.0 | 0.00 | 0.01 | 0.01 | 92 | 1016.5 |
| 20260905060524 | 51 | 0 | 0.0 | 0.0 | 0.00 | 0.01 | 0.01 | 92 | 1016.5 |
| 20260905060055 | 51 | 0 | 0.0 | 1.0 | 0.00 | 0.01 | 0.01 | 91 | 1016.6 |
| 20260905055527 | 51 | 0 | 0.0 | 2.0 | 0.00 | 0.03 | 0.01 | 91 | 1016.6 |
| 20260905055026 | 51 | 0 | 0.0 | 2.0 | 0.00 | 0.03 | 0.01 | 91 | 1016.5 |
| 20260905054545 | 51 | 0 | 0.0 | 2.0 | 0.00 | 0.03 | 0.01 | 91 | 1016.6 |
| 20260905054022 | 51 | 0 | 0.0 | 2.0 | 0.00 | 0.03 | 0.01 | 92 | 1016.6 |
| 20260905053524 | 51 | 0 | 0.0 | 0.0 | 0.00 | 0.03 | 0.01 | 92 | 1016.6 |
| 20260905053046 | 51 | 0 | 0.0 | 0.0 | 0.00 | 0.03 | 0.01 | 92 | 1016.5 |
| 20260905052523 | 51 | 0 | 0.0 | 0.0 | 0.00 | 0.03 | 0.01 | 93 | 1016.5 |
| 20260905052024 | 51 | 0 | 0.0 | 0.0 | 0.00 | 0.03 | 0.01 | 93 | 1016.6 |
| 20260905051540 | 51 | 0 | 0.0 | 0.0 | 0.00 | 0.03 | 0.01 | 93 | 1016.6 |
| 20260905051023 | 51 | 0 | 0.0 | 0.0 | 0.00 | 0.03 | 0.01 | 92 | 1016.6 |
| 20260905050524 | 51 | 0 | 0.0 | 0.0 | 0.00 | 0.03 | 0.01 | 93 | 1016.7 |
| 20260905050051 | 51 | 0 | 0.0 | 1.0 | 0.00 | 0.03 | 0.01 | 93 | 1016.7 |
| 20260905045527 | 51 | 0 | 0.0 | 3.0 | 0.00 | 0.07 | 0.01 | 93 | 1016.8 |
| 20260905045026 | 51 | 0 | 0.0 | 3.0 | 0.00 | 0.07 | 0.01 | 93 | 1016.8 |
| 20260905044549 | 51 | 281 | 0.0 | 0.0 | 0.00 | 0.07 | 0.01 | 93 | 1016.7 |
| 20260905044022 | 51 | 0 | 0.0 | 0.0 | 0.00 | 0.07 | 0.01 | 93 | 1016.8 |
| 20260905043522 | 51 | 0 | 0.0 | 0.0 | 0.00 | 0.07 | 0.01 | 93 | 1016.8 |
| 20260905043045 | 51 | 0 | 0.0 | 0.0 | 0.00 | 0.07 | 0.01 | 92 | 1016.8 |
| 20260905042522 | 51 | 0 | 0.0 | 0.0 | 0.00 | 0.07 | 0.01 | 92 | 1016.8 |
| 20260905042024 | 51 | 0 | 0.0 | 0.0 | 0.00 | 0.07 | 0.01 | 92 | 1016.8 |
| 20260905041550 | 51 | 0 | 0.0 | 0.0 | 0.00 | 0.07 | 0.01 | 92 | 1016.7 |
| 20260905041026 | 51 | 0 | 0.0 | 0.0 | 0.00 | 0.07 | 0.01 | 92 | 1016.7 |
| 20260905040524 | 51 | 0 | 0.0 | 0.0 | 0.00 | 0.07 | 0.01 | 92 | 1016.7 |
| 20260905040046 | 52 | 0 | 0.0 | 0.0 | 0.00 | 0.07 | 0.01 | 92 | 1016.7 |
| 20260905035525 | 52 | 0 | 0.0 | 0.0 | 0.00 | 0.07 | 0.01 | 92 | 1016.7 |
| 20260905035023 | 52 | 0 | 0.0 | 0.0 | 0.00 | 0.07 | 0.01 | 92 | 1016.6 |
| 20260905034549 | 52 | 0 | 0.0 | 0.0 | 0.00 | 0.07 | 0.01 | 92 | 1016.6 |
| 20260905034023 | 52 | 0 | 0.0 | 0.0 | 0.00 | 0.07 | 0.01 | 92 | 1016.5 |
| 20260905033524 | 52 | 0 | 0.0 | 0.0 | 0.00 | 0.07 | 0.01 | 92 | 1016.4 |
| 20260905033051 | 52 | 0 | 0.0 | 0.0 | 0.00 | 0.07 | 0.01 | 92 | 1016.4 |
| 20260905032522 | 52 | 0 | 0.0 | 0.0 | 0.00 | 0.07 | 0.01 | 92 | 1016.3 |
| 20260905032022 | 52 | 0 | 0.0 | 0.0 | 0.00 | 0.07 | 0.01 | 91 | 1016.2 |
| 20260905031546 | 52 | 0 | 0.0 | 0.0 | 0.00 | 0.07 | 0.01 | 91 | 1016.2 |
| 20260905031024 | 53 | 0 | 0.0 | 0.0 | 0.00 | 0.07 | 0.01 | 91 | 1016.1 |
| 20260905030525 | 53 | 0 | 0.0 | 0.0 | 0.00 | 0.07 | 0.01 | 90 | 1016.0 |
| 20260905030046 | 53 | 0 | 0.0 | 0.0 | 0.00 | 0.07 | 0.01 | 90 | 1016.0 |
| 20260905025524 | 53 | 0 | 0.0 | 0.0 | 0.00 | 0.07 | 0.01 | 91 | 1015.9 |
| 20260905025023 | 53 | 0 | 0.0 | 0.0 | 0.00 | 0.07 | 0.01 | 91 | 1016.0 |
| 20260905024551 | 53 | 0 | 0.0 | 0.0 | 0.00 | 0.07 | 0.01 | 90 | 1015.9 |
| 20260905024024 | 53 | 0 | 0.0 | 0.0 | 0.00 | 0.07 | 0.01 | 90 | 1015.9 |
| 20260905023524 | 54 | 0 | 0.0 | 0.0 | 0.00 | 0.07 | 0.01 | 90 | 1015.8 |
| 20260905023050 | 54 | 0 | 0.0 | 0.0 | 0.00 | 0.07 | 0.01 | 90 | 1015.7 |
| 20260905022523 | 54 | 0 | 0.0 | 0.0 | 0.00 | 0.07 | 0.01 | 89 | 1015.7 |
| 20260905022024 | 54 | 0 | 0.0 | 0.0 | 0.00 | 0.07 | 0.01 | 89 | 1015.8 |
| 20260905021547 | 54 | 0 | 0.0 | 0.0 | 0.00 | 0.07 | 0.01 | 88 | 1015.7 |
| 20260905021025 | 54 | 0 | 0.0 | 0.0 | 0.00 | 0.07 | 0.01 | 87 | 1015.8 |
| 20260905020526 | 54 | 0 | 0.0 | 0.0 | 0.00 | 0.07 | 0.01 | 87 | 1015.8 |
| 20260905020047 | 54 | 0 | 0.0 | 0.0 | 0.00 | 0.07 | 0.01 | 86 | 1015.7 |
| 20260905015528 | 54 | 0 | 0.0 | 3.0 | 0.00 | 0.08 | 0.01 | 87 | 1015.9 |
| 20260905015024 | 54 | 0 | 0.0 | 3.0 | 0.00 | 0.08 | 0.01 | 89 | 1015.8 |
| 20260905014545 | 54 | 0 | 0.0 | 3.0 | 0.00 | 0.08 | 0.01 | 89 | 1015.9 |
| 20260905014024 | 54 | 0 | 0.0 | 3.0 | 0.00 | 0.08 | 0.01 | 90 | 1015.9 |
| 20260905013528 | 54 | 0 | 0.0 | 3.0 | 0.00 | 0.08 | 0.01 | 90 | 1015.8 |
| 20260905013108 | 54 | 0 | 0.0 | 1.0 | 0.00 | 0.08 | 0.01 | 90 | 1015.9 |
| 20260905012535 | 54 | 0 | 0.0 | 0.0 | 0.00 | 0.08 | 0.01 | 88 | 1015.7 |
| 20260905012026 | 55 | 0 | 0.0 | 3.0 | 0.00 | 0.08 | 0.01 | 88 | 1015.8 |
| 20260905011549 | 55 | 0 | 0.0 | 3.0 | 0.00 | 0.08 | 0.01 | 89 | 1015.7 |
| 20260905011029 | 55 | 248 | 0.0 | 3.0 | 0.00 | 0.08 | 0.01 | 90 | 1015.7 |
| 20260905010525 | 54 | 0 | 0.0 | 0.0 | 0.00 | 0.08 | 0.01 | 89 | 1015.7 |
| 20260905010046 | 54 | 0 | 0.0 | 0.0 | 0.00 | 0.08 | 0.01 | 90 | 1015.8 |
| 20260905005525 | 55 | 0 | 0.0 | 1.0 | 0.01 | 0.12 | 0.01 | 88 | 1015.8 |
| 20260905005025 | 55 | 0 | 0.0 | 1.0 | 0.01 | 0.12 | 0.01 | 88 | 1015.8 |
| 20260905004606 | 55 | 0 | 0.0 | 2.0 | 0.01 | 0.12 | 0.01 | 88 | 1015.7 |
| 20260905004024 | 55 | 0 | 0.0 | 3.0 | 0.01 | 0.12 | 0.01 | 88 | 1015.7 |
| 20260905003528 | 55 | 0 | 0.0 | 3.0 | 0.01 | 0.12 | 0.01 | 89 | 1015.5 |
| 20260905003052 | 55 | 271 | 0.0 | 5.0 | 0.01 | 0.12 | 0.01 | 89 | 1015.4 |
| 20260905002523 | 55 | 0 | 0.0 | 5.0 | 0.01 | 0.12 | 0.01 | 87 | 1015.4 |
| 20260905002031 | 55 | 0 | 0.0 | 5.0 | 0.01 | 0.12 | 0.01 | 85 | 1015.4 |
| 20260905001556 | 55 | 0 | 0.0 | 1.0 | 0.01 | 0.12 | 0.01 | 87 | 1015.5 |
| 20260905001024 | 56 | 0 | 0.0 | 1.0 | 0.01 | 0.12 | 0.01 | 87 | 1015.5 |
| 20260905000523 | 56 | 0 | 0.0 | 1.0 | 0.01 | 0.12 | 0.01 | 87 | 1015.5 |
| 20260905000052 | 56 | 0 | 0.0 | 1.0 | 0.00 | 0.11 | 0.00 | 87 | 1015.4 |
| 20260904235523 | 56 | 0 | 0.0 | 3.0 | 0.00 | 0.18 | 0.00 | 85 | 1015.3 |
| 20260904235024 | 56 | 0 | 0.0 | 6.0 | 0.00 | 0.18 | 0.00 | 83 | 1015.2 |
| 20260904234543 | 57 | 0 | 1.0 | 6.0 | 0.00 | 0.18 | 0.00 | 82 | 1015.2 |
| 20260904234024 | 57 | 123 | 1.0 | 11.0 | 0.00 | 0.18 | 0.00 | 80 | 1015.3 |
| 20260904233523 | 57 | 119 | 3.0 | 11.0 | 0.00 | 0.18 | 0.00 | 80 | 1015.3 |
| 20260904233046 | 57 | 142 | 4.0 | 11.0 | 0.00 | 0.18 | 0.00 | 79 | 1015.1 |
| 20260904232525 | 58 | 144 | 4.0 | 9.0 | 0.00 | 0.18 | 0.00 | 79 | 1015.2 |
| 20260904232024 | 58 | 113 | 2.0 | 11.0 | 0.00 | 0.18 | 0.00 | 78 | 1015.2 |
| 20260904231546 | 58 | 150 | 3.0 | 11.0 | 0.00 | 0.18 | 0.00 | 78 | 1015.0 |
| 20260904231024 | 59 | 127 | 4.0 | 12.0 | 0.00 | 0.18 | 0.00 | 81 | 1015.1 |
| 20260904230525 | 59 | 120 | 2.0 | 12.0 | 0.00 | 0.18 | 0.00 | 85 | 1015.0 |
| 20260904230047 | 59 | 0 | 4.0 | 12.0 | 0.00 | 0.18 | 0.00 | 84 | 1014.9 |
| 20260904225525 | 59 | 0 | 3.0 | 11.0 | 0.00 | 0.18 | 0.00 | 84 | 1014.7 |
| 20260904225024 | 59 | 221 | 3.0 | 7.0 | 0.00 | 0.18 | 0.00 | 82 | 1014.6 |
| 20260904224544 | 60 | 121 | 2.0 | 7.0 | 0.00 | 0.18 | 0.00 | 80 | 1014.5 |
| 20260904224025 | 60 | 113 | 1.0 | 6.0 | 0.00 | 0.18 | 0.00 | 80 | 1014.3 |
| 20260904223523 | 61 | 105 | 1.0 | 6.0 | 0.00 | 0.18 | 0.00 | 80 | 1014.2 |
| 20260904223051 | 61 | 109 | 1.0 | 6.0 | 0.00 | 0.18 | 0.00 | 79 | 1014.0 |
| 20260904222527 | 61 | 106 | 2.0 | 6.0 | 0.00 | 0.18 | 0.00 | 78 | 1013.8 |
| 20260904222026 | 62 | 148 | 1.0 | 6.0 | 0.00 | 0.18 | 0.00 | 75 | 1013.8 |
| 20260904221551 | 64 | 0 | 0.0 | 3.0 | 0.00 | 0.18 | 0.00 | 72 | 1013.7 |
| 20260904221024 | 64 | 0 | 1.0 | 3.0 | 0.00 | 0.18 | 0.00 | 68 | 1013.6 |
| 20260904220525 | 64 | 0 | 0.0 | 3.0 | 0.00 | 0.18 | 0.00 | 71 | 1013.7 |
| 20260904220048 | 63 | 121 | 0.0 | 4.0 | 0.00 | 0.18 | 0.00 | 71 | 1013.8 |
| 20260904215523 | 62 | 103 | 1.0 | 4.0 | 0.00 | 0.18 | 0.00 | 74 | 1013.8 |
| 20260904215024 | 62 | 148 | 0.0 | 4.0 | 0.00 | 0.18 | 0.00 | 75 | 1013.7 |
| 20260904214552 | 62 | 123 | 0.0 | 3.0 | 0.00 | 0.18 | 0.00 | 75 | 1013.6 |
| 20260904214024 | 62 | 225 | 0.0 | 3.0 | 0.00 | 0.18 | 0.00 | 73 | 1013.6 |
| 20260904213527 | 63 | 0 | 1.0 | 3.0 | 0.00 | 0.18 | 0.00 | 70 | 1013.5 |
| 20260904213051 | 63 | 117 | 0.0 | 3.0 | 0.00 | 0.18 | 0.00 | 72 | 1013.6 |
| 20260904212525 | 63 | 0 | 0.0 | 4.0 | 0.00 | 0.18 | 0.00 | 74 | 1013.5 |
| 20260904212024 | 63 | 0 | 0.0 | 4.0 | 0.00 | 0.18 | 0.00 | 72 | 1013.6 |
| 20260904211550 | 61 | 0 | 1.0 | 4.0 | 0.00 | 0.18 | 0.00 | 75 | 1013.7 |
| 20260904211026 | 60 | 0 | 0.0 | 2.0 | 0.00 | 0.18 | 0.00 | 77 | 1013.6 |
| 20260904210523 | 60 | 113 | 0.0 | 2.0 | 0.00 | 0.18 | 0.00 | 79 | 1013.6 |
| 20260904210041 | 60 | 72 | 0.0 | 2.0 | 0.00 | 0.18 | 0.00 | 78 | 1013.7 |
| 20260904205523 | 60 | 0 | 0.0 | 1.0 | 0.00 | 0.18 | 0.00 | 80 | 1013.7 |
| 20260904205022 | 60 | 0 | 0.0 | 0.0 | 0.00 | 0.18 | 0.00 | 79 | 1013.8 |